CUTE-1.7+APD II

Satellite information

Favourite Embed

Satellite Type and Status

PAYLOADIN ORBIT

Key statistics

Satellite CUTE-1.7+APD II at a glance.

Uptime

6223

Days in orbit

Revolutions

≈ 15.0

Per day

Orbit

SSO

Sun Synchronous Orbit

Inclination

97.8

Latest

Satellite identification and parameters

Extended collection of information and parameters for CUTE-1.7+APD II.

Object identification

Identified? True

Debris? False

Object name: CUTE-1.7+APD II

International designator: 2008-021C

Object number (NORAD): 32785

Object ID (CCSDS): 32785

Country: JAPAN (JPN)

Current information (Y/N): Y

RCS size: MEDIUM

Orbital parameters

Period: 95.736 minutes

Inclination: 97.7826 deg

SMA: 6932.284 km

Apoapsis: 560.22 km

Periapsis: 548.079 km

RAAN: 102.896 deg

Eccentricy: 0.0008757

Argument of periapsis: 316.2212 deg

Mean anomaly: 43.8319 deg

Mean motion: 15.04139781 rev/day

Mean motion (dot): 0.00006365 rev/day2

B* drag term: 0.00046302 1/REarth

Two-line elements (TLE)

Creation date: May 12, 2025, 2:31 a.m.

Reference frame: TEME

Reference center: EARTH

Epoch: May 11, 2025, 10:27 p.m. UTC

TLE line 0: 0 CUTE-1.7+APD II

TLE line 1: 1 32785U 08021C 25131.93590316 .00006365 00000-0 46302-3 0 9992

TLE line 2: 2 32785 97.7826 102.8960 0008757 316.2212 43.8319 15.04139781924772

Live tracking on map

Real-time ground track for satellite CUTE-1.7+APD II.

In-orbit conjunctions

There are no conjunctions computed for CUTE-1.7+APD II, at the moment. Check back to stay up to date, as we update our databases every day.

Go to all conjunctions

Associated space launch

Indian Earth observation satellite. Launched alongside 9 nanosatellites.

CUTE-1.7+APD II was lifted into orbit during the mission ‘PSLV | Cartosat 2A’, on board a PSLV space rocket.

The launch took place on April 28, 2008, 3:53 a.m. from Satish Dhawan Space Centre Second Launch Pad.

For more information about the launch, click the button.

Launch to space PSLV | Cartosat 2A
PSLV | Cartosat 2A

Agency: N/A

Status: Launch Successful

Launch date: April 28, 2008, 3:53 a.m. UTC

Rocket: PSLV

Launch pad: Satish Dhawan Space Centre Second Launch Pad

Location: Satish Dhawan Space Centre, India

...

Latest news about this satellite

There are no fresh news available about this satellite. Check back as we update our databases every day.


Newsletter sign-up

Weekly statistics, charts and insights to help you stay on top of the space industry.